| time (UTC) | temp C | wind direction | speed KPH | gust KPH | rain 1hr cm | rain 24hr cm | rain mn cm | humidity % | barometer mb |
| 20260503213047 | 25 | 177 | 1.6 | 9.7 | 0.00 | 0.00 | 0.00 | 44 | |
| 20260503212545 | 25 | 22 | 4.8 | 8.0 | 0.00 | 0.00 | 0.00 | 43 | |
| 20260503212042 | 25 | 71 | 1.6 | 8.0 | 0.00 | 0.00 | 0.00 | 43 | |
| 20260503211539 | 24 | 193 | 4.8 | 4.8 | 0.00 | 0.00 | 0.00 | 43 | |
| 20260503211034 | 24 | 267 | 4.8 | 11.3 | 0.00 | 0.00 | 0.00 | 44 | |
| 20260503210532 | 23 | 286 | 3.2 | 4.8 | 0.00 | 0.00 | 0.00 | 45 | |
| 20260503210027 | 24 | 270 | 4.8 | 9.7 | 0.00 | 0.00 | 0.00 | 44 | |
| 20260503205524 | 24 | 181 | 3.2 | 12.9 | 0.00 | 0.00 | 0.00 | 45 | |
| 20260503205021 | 24 | 59 | 4.8 | 8.0 | 0.00 | 0.00 | 0.00 | 44 | |
| 20260503204518 | 25 | 23 | 1.6 | 8.0 | 0.00 | 0.00 | 0.00 | 45 | |
| 20260503204015 | 24 | 336 | 4.8 | 14.5 | 0.00 | 0.00 | 0.00 | 46 | |
| 20260503203512 | 24 | 13 | 6.4 | 8.0 | 0.00 | 0.00 | 0.00 | 44 | |
| 20260503203009 | 23 | 235 | 1.6 | 11.3 | 0.00 | 0.00 | 0.00 | 46 | |
| 20260503202507 | 24 | 331 | 1.6 | 9.7 | 0.00 | 0.00 | 0.00 | 46 | |
| 20260503202004 | 23 | 329 | 4.8 | 11.3 | 0.00 | 0.00 | 0.00 | 46 | |
| 20260503201502 | 24 | 255 | 4.8 | 9.7 | 0.00 | 0.00 | 0.00 | 47 | |
| 20260503200959 | 23 | 179 | 0.0 | 8.0 | 0.00 | 0.00 | 0.00 | 48 | |
| 20260503200455 | 23 | 191 | 1.6 | 9.7 | 0.00 | 0.00 | 0.00 | 48 | |
| 20260503195952 | 23 | 170 | 1.6 | 3.2 | 0.00 | 0.00 | 0.00 | 47 | |
| 20260503195449 | 23 | 146 | 1.6 | 3.2 | 0.00 | 0.00 | 0.00 | 52 | |
| 20260503194945 | 23 | 110 | 1.6 | 11.3 | 0.00 | 0.00 | 0.00 | 49 | |
| 20260503194443 | 24 | 115 | 1.6 | 4.8 | 0.00 | 0.00 | 0.00 | 47 | |
| 20260503193938 | 23 | 155 | 4.8 | 11.3 | 0.00 | 0.00 | 0.00 | 49 | |
| 20260503193434 | 23 | 90 | 1.6 | 11.3 | 0.00 | 0.00 | 0.00 | 50 | |
| 20260503192930 | 22 | 54 | 1.6 | 11.3 | 0.00 | 0.00 | 0.00 | 50 | |
| 20260503192426 | 23 | 355 | 4.8 | 12.9 | 0.00 | 0.00 | 0.00 | 50 | |
| 20260503191922 | 23 | 148 | 1.6 | 12.9 | 0.00 | 0.00 | 0.00 | 51 | |
| 20260503191420 | 24 | 334 | 1.6 | 4.8 | 0.00 | 0.00 | 0.00 | 48 | |
| 20260503190916 | 23 | 92 | 1.6 | 3.2 | 0.00 | 0.00 | 0.00 | 47 | |
| 20260503190414 | 23 | 42 | 6.4 | 9.7 | 0.00 | 0.00 | 0.00 | 47 | |
| 20260503185910 | 25 | 135 | 4.8 | 8.0 | 0.00 | 0.00 | 0.00 | 44 | |
| 20260503185407 | 24 | 127 | 1.6 | 3.2 | 0.00 | 0.00 | 0.00 | 48 | |
| 20260503184906 | 23 | 126 | 0.0 | 3.2 | 0.00 | 0.00 | 0.00 | 48 | |
| 20260503184403 | 22 | 163 | 3.2 | 4.8 | 0.00 | 0.00 | 0.00 | 49 | |
| 20260503183859 | 23 | 5 | 4.8 | 8.0 | 0.00 | 0.00 | 0.00 | 49 | |
| 20260503183355 | 23 | 243 | 3.2 | 4.8 | 0.00 | 0.00 | 0.00 | 49 | |
| 20260503182853 | 22 | 120 | 3.2 | 4.8 | 0.00 | 0.00 | 0.00 | 49 | |
| 20260503182352 | 22 | 163 | 4.8 | 4.8 | 0.00 | 0.00 | 0.00 | 49 | |
| 20260503181848 | 23 | 259 | 3.2 | 4.8 | 0.00 | 0.00 | 0.00 | 49 | |
| 20260503181345 | 22 | 184 | 1.6 | 4.8 | 0.00 | 0.00 | 0.00 | 50 | |
| 20260503180842 | 22 | 81 | 1.6 | 8.0 | 0.00 | 0.00 | 0.00 | 49 | |
| 20260503180340 | 22 | 141 | 0.0 | 3.2 | 0.00 | 0.00 | 0.00 | 51 | |
| 20260503175836 | 22 | 174 | 1.6 | 11.3 | 0.00 | 0.00 | 0.00 | 50 | |
| 20260503175334 | 22 | 118 | 1.6 | 8.0 | 0.00 | 0.00 | 0.00 | 49 | |
| 20260503174834 | 21 | 168 | 3.2 | 4.8 | 0.00 | 0.00 | 0.00 | 50 | |
| 20260503174333 | 22 | 168 | 1.6 | 8.0 | 0.00 | 0.00 | 0.00 | 51 | |
| 20260503173828 | 21 | 220 | 1.6 | 8.0 | 0.00 | 0.00 | 0.00 | 51 | |
| 20260503173324 | 22 | 351 | 4.8 | 8.0 | 0.00 | 0.00 | 0.00 | 51 | |
| 20260503172821 | 21 | 219 | 1.6 | 4.8 | 0.00 | 0.00 | 0.00 | 51 | |
| 20260503172319 | 22 | 304 | 6.4 | 9.7 | 0.00 | 0.00 | 0.00 | 51 | |
| 20260503171815 | 22 | 150 | 0.0 | 1.6 | 0.00 | 0.00 | 0.00 | 50 | |
| 20260503171312 | 21 | 171 | 1.6 | 9.7 | 0.00 | 0.00 | 0.00 | 53 | |
| 20260503170809 | 21 | 198 | 0.0 | 8.0 | 0.00 | 0.00 | 0.00 | 52 | |
| 20260503170305 | 21 | 166 | 1.6 | 9.7 | 0.00 | 0.00 | 0.00 | 52 | |
| 20260503150658 | 18 | 132 | 1.6 | 1.6 | 0.00 | 0.00 | 0.00 | 63 | |
| 20260503150154 | 17 | 141 | 0.0 | 0.0 | 0.00 | 0.00 | 0.00 | 66 | |
| 20260503140118 | 11 | 177 | 0.0 | 0.0 | 0.00 | 0.00 | 0.00 | 98 | |
| 20260503131048 | 9 | 182 | 0.0 | 0.0 | 0.00 | 0.00 | 0.00 | 98 | |
| 20260503130544 | 9 | 192 | 0.0 | 0.0 | 0.00 | 0.00 | 0.00 | 98 | |
| 20260503110435 | 10 | 225 | 0.0 | 0.0 | 0.00 | 0.00 | 0.00 | 96 | |
| 20260503090326 | 11 | 225 | 0.0 | 0.0 | 0.00 | 0.00 | 0.00 | 93 | |
| 20260503081254 | 11 | 185 | 0.0 | 0.0 | 0.00 | 0.00 | 0.00 | 92 | 1020.2 |
| 20260503080749 | 12 | 189 | 0.0 | 0.0 | 0.00 | 0.00 | 0.00 | 91 | 1020.2 |
| 20260503080247 | 12 | 185 | 0.0 | 0.0 | 0.00 | 0.00 | 0.00 | 91 | 1020.2 |
| 20260503072724 | 12 | 175 | 0.0 | 0.0 | 0.00 | 0.00 | 0.00 | 88 | 1020.1 |
| 20260503072221 | 12 | 175 | 0.0 | 0.0 | 0.00 | 0.00 | 0.00 | 87 | 1020.1 |
| 20260503071717 | 12 | 188 | 0.0 | 0.0 | 0.00 | 0.00 | 0.00 | 86 | 1020.1 |
| 20260503071214 | 12 | 181 | 0.0 | 0.0 | 0.00 | 0.00 | 0.00 | 86 | 1020.1 |
| 20260503070710 | 12 | 177 | 0.0 | 0.0 | 0.00 | 0.00 | 0.00 | 85 | 1020.1 |
| 20260503070209 | 12 | 185 | 0.0 | 0.0 | 0.00 | 0.00 | 0.00 | 85 | 1020.1 |
| 20260503060133 | 13 | 192 | 0.0 | 0.0 | 0.00 | 0.00 | 0.00 | 81 | 1020.1 |
| 20260503055125 | 13 | 174 | 0.0 | 0.0 | 0.00 | 0.00 | 0.00 | 81 | 1020.2 |
| 20260503054620 | 13 | 248 | 0.0 | 0.0 | 0.00 | 0.00 | 0.00 | 80 | 1020.2 |
| 20260503054117 | 13 | 205 | 1.6 | 1.6 | 0.00 | 0.00 | 0.00 | 80 | 1020.0 |
| 20260503053615 | 14 | 206 | 0.0 | 3.2 | 0.00 | 0.00 | 0.00 | 79 | 1020.2 |
| 20260503053114 | 14 | 114 | 1.6 | 1.6 | 0.00 | 0.00 | 0.00 | 78 | 1020.1 |
| 20260503052609 | 14 | 129 | 0.0 | 0.0 | 0.00 | 0.00 | 0.00 | 77 | 1020.2 |
| 20260503052106 | 14 | 186 | 0.0 | 0.0 | 0.00 | 0.00 | 0.00 | 77 | 1020.1 |
| 20260503051601 | 14 | 183 | 0.0 | 1.6 | 0.00 | 0.00 | 0.00 | 78 | 1020.1 |
| 20260503051059 | 15 | 168 | 0.0 | 3.2 | 0.00 | 0.00 | 0.00 | 77 | 1020.2 |
| 20260503050555 | 15 | 274 | 3.2 | 3.2 | 0.00 | 0.00 | 0.00 | 76 | 1020.2 |
| 20260503050053 | 15 | 141 | 0.0 | 0.0 | 0.00 | 0.00 | 0.00 | 75 | 1020.2 |
| 20260503045549 | 15 | 178 | 0.0 | 0.0 | 0.00 | 0.00 | 0.00 | 75 | 1020.1 |
| 20260503045047 | 15 | 189 | 1.6 | 1.6 | 0.00 | 0.00 | 0.00 | 75 | 1020.0 |
| 20260503044543 | 15 | 185 | 0.0 | 0.0 | 0.00 | 0.00 | 0.00 | 75 | 1020.1 |
| 20260503044041 | 15 | 175 | 1.6 | 1.6 | 0.00 | 0.00 | 0.00 | 75 | 1019.9 |
| 20260503043537 | 15 | 176 | 0.0 | 0.0 | 0.00 | 0.00 | 0.00 | 75 | 1020.0 |
| 20260503043034 | 15 | 182 | 0.0 | 0.0 | 0.00 | 0.00 | 0.00 | 74 | 1020.0 |
| 20260503042531 | 16 | 177 | 0.0 | 1.6 | 0.00 | 0.00 | 0.00 | 74 | 1019.9 |
| 20260503042027 | 16 | 185 | 1.6 | 1.6 | 0.00 | 0.00 | 0.00 | 73 | 1019.8 |
| 20260503041524 | 16 | 175 | 0.0 | 0.0 | 0.00 | 0.00 | 0.00 | 73 | 1019.9 |
| 20260503041022 | 16 | 202 | 0.0 | 1.6 | 0.00 | 0.00 | 0.00 | 73 | 1019.9 |
| 20260503040519 | 16 | 176 | 0.0 | 0.0 | 0.00 | 0.00 | 0.00 | 72 | 1019.9 |
| 20260503040016 | 16 | 185 | 0.0 | 1.6 | 0.00 | 0.00 | 0.00 | 71 | 1019.8 |
| 20260503035513 | 17 | 176 | 0.0 | 0.0 | 0.00 | 0.00 | 0.00 | 70 | 1019.8 |
| 20260503035010 | 17 | 200 | 0.0 | 1.6 | 0.00 | 0.00 | 0.00 | 69 | 1019.6 |
| 20260503034508 | 18 | 185 | 1.6 | 1.6 | 0.00 | 0.00 | 0.00 | 67 | 1019.5 |
| 20260503034004 | 18 | 176 | 0.0 | 0.0 | 0.00 | 0.00 | 0.00 | 65 | 1019.4 |
| 20260503033501 | 18 | 173 | 0.0 | 0.0 | 0.00 | 0.00 | 0.00 | 61 | 1019.4 |
| 20260503033000 | 18 | 172 | 0.0 | 0.0 | 0.00 | 0.00 | 0.00 | 58 | 1019.4 |
| 20260503032458 | 19 | 177 | 0.0 | 0.0 | 0.00 | 0.00 | 0.00 | 58 | 1019.3 |
| 20260503031955 | 19 | 175 | 1.6 | 1.6 | 0.00 | 0.00 | 0.00 | 56 | 1019.2 |
| 20260503031453 | 20 | 197 | 0.0 | 0.0 | 0.00 | 0.00 | 0.00 | 55 | 1019.5 |
| 20260503030949 | 20 | 175 | 0.0 | 0.0 | 0.00 | 0.00 | 0.00 | 55 | 1019.2 |
| 20260503030446 | 20 | 167 | 0.0 | 0.0 | 0.00 | 0.00 | 0.00 | 55 | 1019.5 |
| 20260503025943 | 20 | 178 | 1.6 | 3.2 | 0.00 | 0.00 | 0.00 | 54 | 1019.3 |
| 20260503025439 | 20 | 179 | 3.2 | 3.2 | 0.00 | 0.00 | 0.00 | 53 | 1019.4 |
| 20260503024938 | 20 | 171 | 0.0 | 3.2 | 0.00 | 0.00 | 0.00 | 53 | 1019.3 |
| 20260503024433 | 20 | 222 | 1.6 | 4.8 | 0.00 | 0.00 | 0.00 | 52 | 1019.2 |
| 20260503023931 | 21 | 152 | 0.0 | 3.2 | 0.00 | 0.00 | 0.00 | 52 | 1019.3 |
| 20260503023428 | 21 | 156 | 0.0 | 3.2 | 0.00 | 0.00 | 0.00 | 52 | 1019.3 |
| 20260503022925 | 21 | 173 | 4.8 | 4.8 | 0.00 | 0.00 | 0.00 | 52 | 1019.2 |
| 20260503022420 | 21 | 172 | 1.6 | 3.2 | 0.00 | 0.00 | 0.00 | 52 | 1019.4 |
| 20260503021916 | 21 | 176 | 4.8 | 8.0 | 0.00 | 0.00 | 0.00 | 51 | 1019.3 |
| 20260503021412 | 22 | 158 | 1.6 | 1.6 | 0.00 | 0.00 | 0.00 | 52 | 1019.4 |
| 20260503020910 | 22 | 196 | 1.6 | 3.2 | 0.00 | 0.00 | 0.00 | 51 | 1019.3 |
| 20260503020408 | 22 | 171 | 4.8 | 4.8 | 0.00 | 0.00 | 0.00 | 52 | 1019.3 |
| 20260503015904 | 22 | 185 | 3.2 | 3.2 | 0.00 | 0.00 | 0.00 | 52 | 1019.4 |
| 20260503015401 | 22 | 177 | 4.8 | 4.8 | 0.00 | 0.00 | 0.00 | 52 | 1019.3 |
| 20260503014856 | 22 | 168 | 4.8 | 8.0 | 0.00 | 0.00 | 0.00 | 51 | 1019.3 |
| 20260503014354 | 22 | 212 | 3.2 | 4.8 | 0.00 | 0.00 | 0.00 | 52 | 1019.4 |
| 20260503013852 | 23 | 183 | 4.8 | 8.0 | 0.00 | 0.00 | 0.00 | 52 | 1019.4 |
| 20260503013349 | 23 | 187 | 3.2 | 4.8 | 0.00 | 0.00 | 0.00 | 52 | 1019.3 |
| 20260503012846 | 23 | 165 | 3.2 | 8.0 | 0.00 | 0.00 | 0.00 | 53 | 1019.4 |
| 20260503012343 | 24 | 190 | 1.6 | 4.8 | 0.00 | 0.00 | 0.00 | 50 | 1019.4 |
| 20260503011839 | 23 | 172 | 0.0 | 3.2 | 0.00 | 0.00 | 0.00 | 51 | 1019.5 |
| 20260503011331 | 24 | 185 | 3.2 | 3.2 | 0.00 | 0.00 | 0.00 | 50 | 1019.3 |
| 20260503010828 | 26 | 157 | 3.2 | 4.8 | 0.00 | 0.00 | 0.00 | 48 | 1019.7 |
| 20260503010325 | 25 | 151 | 3.2 | 4.8 | 0.00 | 0.00 | 0.00 | 48 | 1019.5 |
| 20260503005821 | 25 | 204 | 0.0 | 1.6 | 0.00 | 0.00 | 0.00 | 46 | 1019.4 |
| 20260503005319 | 27 | 145 | 3.2 | 3.2 | 0.00 | 0.00 | 0.00 | 44 | 1019.7 |
| 20260503004815 | 26 | 183 | 0.0 | 0.0 | 0.00 | 0.00 | 0.00 | 46 | 1019.7 |
| 20260503004313 | 24 | 196 | 1.6 | 4.8 | 0.00 | 0.00 | 0.00 | 49 | 1019.7 |
| 20260503003810 | 25 | 123 | 0.0 | 3.2 | 0.00 | 0.00 | 0.00 | 49 | 1019.7 |
| 20260503003307 | 25 | 123 | 3.2 | 3.2 | 0.00 | 0.00 | 0.00 | 47 | 1019.8 |
| 20260503002804 | 24 | 182 | 3.2 | 4.8 | 0.00 | 0.00 | 0.00 | 50 | 1019.7 |
| 20260503002301 | 25 | 153 | 1.6 | 3.2 | 0.00 | 0.00 | 0.00 | 48 | 1020.0 |
| 20260503001757 | 23 | 185 | 3.2 | 4.8 | 0.00 | 0.00 | 0.00 | 52 | 1020.0 |
| 20260503001253 | 23 | 220 | 1.6 | 3.2 | 0.00 | 0.00 | 0.00 | 51 | 1019.8 |
| 20260503000751 | 23 | 177 | 4.8 | 8.0 | 0.00 | 0.00 | 0.00 | 51 | 1019.9 |
| 20260503000248 | 23 | 183 | 6.4 | 9.7 | 0.00 | 0.00 | 0.00 | 53 | 1020.1 |
| 20260502235745 | 23 | 168 | 6.4 | 9.7 | 0.00 | 0.00 | 0.00 | 53 | 1020.0 |
| 20260502235242 | 23 | 197 | 4.8 | 8.0 | 0.00 | 0.00 | 0.00 | 52 | 1020.1 |
| 20260502234738 | 22 | 198 | 6.4 | 9.7 | 0.00 | 0.00 | 0.00 | 53 | 1020.0 |
| 20260502234236 | 23 | 183 | 8.0 | 9.7 | 0.00 | 0.00 | 0.00 | 51 | 1020.2 |
| 20260502233732 | 25 | 185 | 4.8 | 8.0 | 0.00 | 0.00 | 0.00 | 50 | 1020.2 |
| 20260502233229 | 25 | 166 | 4.8 | 8.0 | 0.00 | 0.00 | 0.00 | 50 | 1020.3 |
| 20260502232725 | 24 | 143 | 4.8 | 11.3 | 0.00 | 0.00 | 0.00 | 51 | 1020.3 |
| 20260502232222 | 24 | 165 | 6.4 | 9.7 | 0.00 | 0.00 | 0.00 | 49 | 1020.3 |
| 20260502231719 | 25 | 181 | 8.0 | 9.7 | 0.00 | 0.00 | 0.00 | 49 | 1020.4 |
| 20260502231217 | 25 | 212 | 1.6 | 8.0 | 0.00 | 0.00 | 0.00 | 48 | 1020.3 |
| 20260502230715 | 25 | 208 | 1.6 | 9.7 | 0.00 | 0.00 | 0.00 | 50 | 1020.6 |
| 20260502230213 | 26 | 153 | 1.6 | 4.8 | 0.00 | 0.00 | 0.00 | 43 | 1020.5 |
| 20260502225708 | 25 | 150 | 0.0 | 8.0 | 0.00 | 0.00 | 0.00 | 46 | 1020.6 |
| 20260502225206 | 25 | 197 | 0.0 | 4.8 | 0.00 | 0.00 | 0.00 | 46 | 1020.6 |
| 20260502224702 | 26 | 70 | 3.2 | 8.0 | 0.00 | 0.00 | 0.00 | 45 | 1020.7 |
| 20260502224159 | 25 | 191 | 1.6 | 3.2 | 0.00 | 0.00 | 0.00 | 45 | 1020.8 |
| 20260502223656 | 24 | 84 | 3.2 | 8.0 | 0.00 | 0.00 | 0.00 | 48 | 1020.9 |
| 20260502223154 | 25 | 42 | 1.6 | 3.2 | 0.00 | 0.00 | 0.00 | 46 | 1020.9 |
| 20260502222652 | 25 | 131 | 0.0 | 9.7 | 0.00 | 0.00 | 0.00 | 46 | 1021.1 |
| 20260502222148 | 25 | 117 | 1.6 | 9.7 | 0.00 | 0.00 | 0.00 | 46 | 1021.1 |
| 20260502221643 | 23 | 66 | 6.4 | 8.0 | 0.00 | 0.00 | 0.00 | 48 | 1021.2 |
| 20260502221141 | 23 | 153 | 3.2 | 3.2 | 0.00 | 0.00 | 0.00 | 47 | 1021.1 |
| 20260502220637 | 23 | 26 | 1.6 | 4.8 | 0.00 | 0.00 | 0.00 | 49 | 1021.1 |
| 20260502220133 | 23 | 74 | 3.2 | 4.8 | 0.00 | 0.00 | 0.00 | 48 | 1021.3 |
| 20260502215631 | 23 | 172 | 3.2 | 4.8 | 0.00 | 0.00 | 0.00 | 48 | 1021.4 |
| 20260502215128 | 23 | 341 | 3.2 | 9.7 | 0.00 | 0.00 | 0.00 | 50 | 1021.7 |
| 20260502214625 | 24 | 171 | 1.6 | 9.7 | 0.00 | 0.00 | 0.00 | 49 | 1021.7 |
| 20260502214122 | 23 | 129 | 0.0 | 4.8 | 0.00 | 0.00 | 0.00 | 49 | 1021.7 |
| 20260502213620 | 22 | 87 | 0.0 | 9.7 | 0.00 | 0.00 | 0.00 | 51 | 1021.8 |